Time,TemperatureF,DewpointF,PressureIn,WindDirection,WindDirectionDegrees,WindSpeedMPH,WindSpeedGustMPH,Humidity,HourlyPrecipIn,Conditions,Clouds,dailyrainin,SoftwareType,DateUTC
2013-07-15 00:01:00,76.1,62.6,30.02,SE,135,0.0,2.0,63,0.00,,,0.00,meteohub,2013-07-15 05:01:00,
2013-07-15 00:06:00,76.1,62.6,30.02,SE,135,0.0,2.0,63,0.00,,,0.00,meteohub,2013-07-15 05:06:00,
2013-07-15 00:11:00,76.1,62.6,30.02,SE,135,0.0,0.0,63,0.00,,,0.00,meteohub,2013-07-15 05:11:00,
2013-07-15 00:16:00,76.1,62.6,30.02,East,90,0.0,0.0,63,0.00,,,0.00,meteohub,2013-07-15 05:16:00,
2013-07-15 00:21:00,75.9,62.4,30.02,ESE,113,1.0,2.0,63,0.00,,,0.00,meteohub,2013-07-15 05:21:00,
2013-07-15 00:26:00,75.6,62.6,30.02,ESE,113,0.0,2.0,64,0.00,,,0.00,meteohub,2013-07-15 05:26:00,
2013-07-15 00:31:00,75.6,62.6,30.02,ESE,113,2.0,2.0,64,0.00,,,0.00,meteohub,2013-07-15 05:31:00,
2013-07-15 00:36:00,75.4,62.8,30.02,ESE,113,0.0,2.0,65,0.00,,,0.00,meteohub,2013-07-15 05:36:00,
2013-07-15 00:41:00,75.2,62.6,30.02,ESE,113,0.0,2.0,65,0.00,,,0.00,meteohub,2013-07-15 05:41:00,
2013-07-15 00:46:00,75.2,62.6,30.02,ESE,113,4.0,4.0,65,0.00,,,0.00,meteohub,2013-07-15 05:46:00,
2013-07-15 00:51:00,75.0,63.0,30.02,East,90,1.0,4.0,66,0.00,,,0.00,meteohub,2013-07-15 05:51:00,
2013-07-15 00:56:00,75.0,63.0,30.03,ESE,113,0.0,4.0,66,0.00,,,0.00,meteohub,2013-07-15 05:56:00,
2013-07-15 01:01:00,74.8,62.8,30.03,ESE,113,0.0,4.0,66,0.00,,,0.00,meteohub,2013-07-15 06:01:00,
2013-07-15 01:06:00,74.7,63.0,30.03,ESE,113,0.0,1.0,67,0.00,,,0.00,meteohub,2013-07-15 06:06:00,
2013-07-15 01:11:00,74.7,63.0,30.03,ESE,113,0.0,0.0,67,0.00,,,0.00,meteohub,2013-07-15 06:11:00,
2013-07-15 01:16:00,74.5,62.8,30.02,East,90,2.0,0.0,67,0.00,,,0.00,meteohub,2013-07-15 06:16:00,
2013-07-15 01:21:00,74.3,63.1,30.02,East,90,2.0,2.0,68,0.00,,,0.00,meteohub,2013-07-15 06:21:00,
2013-07-15 01:26:00,74.3,63.1,30.02,ESE,113,0.0,2.0,68,0.00,,,0.00,meteohub,2013-07-15 06:26:00,
2013-07-15 01:31:00,74.1,63.0,30.02,ESE,113,0.0,2.0,68,0.00,,,0.00,meteohub,2013-07-15 06:31:00,
2013-07-15 01:36:00,74.3,63.5,30.03,ESE,113,1.0,2.0,69,0.00,,,0.00,meteohub,2013-07-15 06:36:00,
2013-07-15 01:41:00,74.3,63.9,30.03,ESE,113,0.0,2.0,70,0.00,,,0.00,meteohub,2013-07-15 06:41:00,
2013-07-15 01:46:00,73.9,63.5,30.03,ESE,113,2.0,2.0,70,0.00,,,0.00,meteohub,2013-07-15 06:46:00,
2013-07-15 01:51:00,73.8,63.7,30.03,SE,135,0.0,2.0,71,0.00,,,0.00,meteohub,2013-07-15 06:51:00,
2013-07-15 01:56:00,73.8,63.7,30.03,SE,135,0.0,2.0,71,0.00,,,0.00,meteohub,2013-07-15 06:56:00,
2013-07-15 02:01:00,73.8,63.7,30.03,ESE,113,0.0,2.0,71,0.00,,,0.00,meteohub,2013-07-15 07:01:00,
2013-07-15 02:06:00,73.6,63.7,30.03,SE,135,0.0,0.0,71,0.00,,,0.00,meteohub,2013-07-15 07:06:00,
2013-07-15 02:11:00,73.6,64.0,30.03,ESE,113,0.0,0.0,72,0.00,,,0.00,meteohub,2013-07-15 07:11:00,
2013-07-15 02:16:00,73.2,63.7,30.04,ESE,113,0.0,0.0,72,0.00,,,0.00,meteohub,2013-07-15 07:16:00,
2013-07-15 02:21:00,73.2,64.0,30.04,East,90,0.0,0.0,73,0.00,,,0.00,meteohub,2013-07-15 07:21:00,
2013-07-15 02:26:00,73.2,64.0,30.04,ESE,113,0.0,0.0,73,0.00,,,0.00,meteohub,2013-07-15 07:26:00,
2013-07-15 02:31:00,73.0,64.2,30.04,ESE,113,0.0,0.0,74,0.00,,,0.00,meteohub,2013-07-15 07:31:00,
2013-07-15 02:36:00,72.9,64.0,30.03,East,90,0.0,0.0,74,0.00,,,0.00,meteohub,2013-07-15 07:36:00,
2013-07-15 02:41:00,72.9,64.0,30.03,ESE,113,0.0,0.0,74,0.00,,,0.00,meteohub,2013-07-15 07:41:00,
2013-07-15 02:46:00,72.9,64.0,30.03,ESE,113,0.0,0.0,74,0.00,,,0.00,meteohub,2013-07-15 07:46:00,
2013-07-15 02:51:00,72.9,64.4,30.03,NE,45,0.0,0.0,75,0.00,,,0.00,meteohub,2013-07-15 07:51:00,
2013-07-15 02:56:00,72.7,64.2,30.04,ENE,68,0.0,0.0,75,0.00,,,0.00,meteohub,2013-07-15 07:56:00,
2013-07-15 03:01:00,72.9,64.4,30.04,ESE,113,0.0,0.0,75,0.00,,,0.00,meteohub,2013-07-15 08:01:00,
2013-07-15 03:06:00,72.9,64.4,30.04,ESE,113,0.0,0.0,75,0.00,,,0.00,meteohub,2013-07-15 08:06:00,
2013-07-15 03:11:00,72.9,64.4,30.04,ESE,113,0.0,0.0,75,0.00,,,0.00,meteohub,2013-07-15 08:11:00,
2013-07-15 03:16:00,72.3,64.4,30.03,East,90,0.0,0.0,76,0.00,,,0.00,meteohub,2013-07-15 08:16:00,
2013-07-15 03:21:00,72.5,64.6,30.03,ESE,113,0.0,0.0,76,0.00,,,0.00,meteohub,2013-07-15 08:21:00,
2013-07-15 03:26:00,72.5,64.9,30.03,ESE,113,0.0,0.0,77,0.00,,,0.00,meteohub,2013-07-15 08:26:00,
2013-07-15 03:31:00,72.5,64.9,30.03,ESE,113,0.0,0.0,77,0.00,,,0.00,meteohub,2013-07-15 08:31:00,
2013-07-15 03:36:00,72.3,64.8,30.03,ESE,113,0.0,0.0,77,0.00,,,0.00,meteohub,2013-07-15 08:36:00,
2013-07-15 03:41:00,72.3,64.8,30.03,ESE,113,0.0,0.0,77,0.00,,,0.00,meteohub,2013-07-15 08:41:00,
2013-07-15 03:46:00,72.1,64.6,30.03,ESE,113,0.0,0.0,77,0.00,,,0.00,meteohub,2013-07-15 08:46:00,
2013-07-15 03:51:00,72.1,64.6,30.03,ESE,113,0.0,0.0,77,0.00,,,0.00,meteohub,2013-07-15 08:51:00,
2013-07-15 03:56:00,72.1,64.9,30.04,ESE,113,0.0,0.0,78,0.00,,,0.00,meteohub,2013-07-15 08:56:00,
2013-07-15 04:01:00,72.1,64.9,30.04,ESE,113,0.0,0.0,78,0.00,,,0.00,meteohub,2013-07-15 09:01:00,
2013-07-15 04:06:00,72.1,64.9,30.04,ENE,68,0.0,0.0,78,0.00,,,0.00,meteohub,2013-07-15 09:06:00,
2013-07-15 04:11:00,72.1,65.3,30.04,ESE,113,0.0,0.0,79,0.00,,,0.00,meteohub,2013-07-15 09:11:00,
2013-07-15 04:16:00,72.1,65.3,30.04,ESE,113,0.0,0.0,79,0.00,,,0.00,meteohub,2013-07-15 09:16:00,
2013-07-15 04:21:00,71.8,64.9,30.04,ESE,113,2.0,0.0,79,0.00,,,0.00,meteohub,2013-07-15 09:21:00,
2013-07-15 04:26:00,71.8,64.9,30.04,ESE,113,0.0,2.0,79,0.00,,,0.00,meteohub,2013-07-15 09:26:00,
2013-07-15 04:31:00,71.8,64.9,30.04,East,90,0.0,2.0,79,0.00,,,0.00,meteohub,2013-07-15 09:31:00,
2013-07-15 04:36:00,71.6,65.1,30.04,ESE,113,0.0,2.0,80,0.00,,,0.00,meteohub,2013-07-15 09:36:00,
2013-07-15 04:41:00,71.8,65.3,30.04,East,90,2.0,0.0,80,0.00,,,0.00,meteohub,2013-07-15 09:41:00,
2013-07-15 04:46:00,71.6,65.1,30.04,East,90,0.0,2.0,80,0.00,,,0.00,meteohub,2013-07-15 09:46:00,
2013-07-15 04:51:00,71.6,65.1,30.04,ESE,113,0.0,2.0,80,0.00,,,0.00,meteohub,2013-07-15 09:51:00,
2013-07-15 04:56:00,71.6,65.1,30.04,ENE,68,0.0,2.0,80,0.00,,,0.00,meteohub,2013-07-15 09:56:00,
2013-07-15 05:01:00,71.6,65.1,30.04,ENE,68,0.0,0.0,80,0.00,,,0.00,meteohub,2013-07-15 10:01:00,
2013-07-15 05:59:00,70.7,65.3,30.06,ESE,113,2.0,3.0,83,0.00,,,0.00,meteohub,2013-07-15 10:59:00,
2013-07-15 06:04:00,70.7,65.3,30.06,ESE,113,2.0,3.0,83,0.00,,,0.00,meteohub,2013-07-15 11:04:00,
2013-07-15 06:09:00,70.7,65.3,30.06,ESE,113,2.0,3.0,83,0.00,,,0.00,meteohub,2013-07-15 11:09:00,
2013-07-15 06:14:00,70.5,65.5,30.06,ESE,113,0.0,2.0,84,0.00,,,0.00,meteohub,2013-07-15 11:14:00,
2013-07-15 06:20:00,70.7,65.7,30.06,SE,135,3.0,3.0,84,0.00,,,0.00,meteohub,2013-07-15 11:20:00,
2013-07-15 06:25:00,70.7,65.7,30.06,ENE,68,0.0,2.0,84,0.00,,,0.00,meteohub,2013-07-15 11:25:00,
2013-07-15 06:30:00,70.5,65.5,30.06,ENE,68,0.0,3.0,84,0.00,,,0.00,meteohub,2013-07-15 11:30:00,
2013-07-15 06:35:00,70.5,65.5,30.06,ESE,113,0.0,3.0,84,0.00,,,0.00,meteohub,2013-07-15 11:35:00,
2013-07-15 06:40:00,70.7,65.7,30.06,ESE,113,0.0,3.0,84,0.00,,,0.00,meteohub,2013-07-15 11:40:00,
2013-07-15 06:45:00,70.7,66.0,30.06,SE,135,0.0,0.0,85,0.00,,,0.00,meteohub,2013-07-15 11:45:00,
2013-07-15 06:50:00,70.7,66.0,30.06,ESE,113,0.0,0.0,85,0.00,,,0.00,meteohub,2013-07-15 11:50:00,
2013-07-15 06:55:00,70.7,66.0,30.07,ESE,113,0.0,0.0,85,0.00,,,0.00,meteohub,2013-07-15 11:55:00,
2013-07-15 07:00:00,70.9,66.2,30.07,ESE,113,0.0,0.0,85,0.00,,,0.00,meteohub,2013-07-15 12:00:00,
2013-07-15 07:05:00,70.9,66.2,30.07,ESE,113,2.0,2.0,85,0.00,,,0.00,meteohub,2013-07-15 12:05:00,
2013-07-15 07:10:00,71.4,66.7,30.06,ENE,68,2.0,2.0,85,0.00,,,0.00,meteohub,2013-07-15 12:10:00,
2013-07-15 07:15:00,71.4,66.7,30.07,ESE,113,2.0,2.0,85,0.00,,,0.00,meteohub,2013-07-15 12:15:00,
2013-07-15 07:20:00,71.2,66.6,30.08,SE,135,0.0,2.0,85,0.00,,,0.00,meteohub,2013-07-15 12:20:00,
2013-07-15 07:25:00,71.6,66.9,30.07,SE,135,0.0,2.0,85,0.00,,,0.00,meteohub,2013-07-15 12:25:00,
2013-07-15 07:30:00,71.8,67.1,30.07,SE,135,0.0,2.0,85,0.00,,,0.00,meteohub,2013-07-15 12:30:00,
2013-07-15 07:35:00,71.8,67.1,30.08,ESE,113,0.0,1.0,85,0.00,,,0.00,meteohub,2013-07-15 12:35:00,
2013-07-15 07:40:00,71.8,67.1,30.08,SE,135,0.0,2.0,85,0.00,,,0.00,meteohub,2013-07-15 12:40:00,
2013-07-15 07:45:00,72.0,66.9,30.08,East,90,3.0,3.0,84,0.00,,,0.00,meteohub,2013-07-15 12:45:00,
2013-07-15 07:50:00,72.1,67.1,30.08,SE,135,3.0,4.0,84,0.00,,,0.00,meteohub,2013-07-15 12:50:00,
2013-07-15 07:55:00,72.5,67.5,30.08,SE,135,2.0,4.0,84,0.00,,,0.00,meteohub,2013-07-15 12:55:00,
2013-07-15 08:00:00,72.9,67.8,30.08,ESE,113,2.0,4.0,84,0.00,,,0.00,meteohub,2013-07-15 13:00:00,
2013-07-15 08:05:00,72.9,67.8,30.08,East,90,0.0,4.0,84,0.00,,,0.00,meteohub,2013-07-15 13:05:00,
2013-07-15 08:10:00,73.0,67.6,30.08,SE,135,0.0,3.0,83,0.00,,,0.00,meteohub,2013-07-15 13:10:00,
2013-07-15 08:15:00,73.0,67.6,30.09,East,90,0.0,3.0,83,0.00,,,0.00,meteohub,2013-07-15 13:15:00,
2013-07-15 08:20:00,73.2,67.8,30.09,ESE,113,0.0,3.0,83,0.00,,,0.00,meteohub,2013-07-15 13:20:00,
2013-07-15 08:25:00,73.0,67.6,30.09,SE,135,0.0,0.0,83,0.00,,,0.00,meteohub,2013-07-15 13:25:00,
2013-07-15 08:30:00,73.6,68.2,30.09,ESE,113,2.0,0.0,83,0.00,,,0.00,meteohub,2013-07-15 13:30:00,
2013-07-15 08:35:00,73.8,68.4,30.10,SE,135,0.0,2.0,83,0.00,,,0.00,meteohub,2013-07-15 13:35:00,
2013-07-15 08:40:00,74.1,68.5,30.10,ESE,113,0.0,2.0,83,0.00,,,0.00,meteohub,2013-07-15 13:40:00,
2013-07-15 08:45:00,74.7,69.1,30.10,SE,135,2.0,2.0,83,0.00,,,0.00,meteohub,2013-07-15 13:45:00,
2013-07-15 08:50:00,74.8,68.9,30.10,ESE,113,0.0,2.0,82,0.00,,,0.00,meteohub,2013-07-15 13:50:00,
2013-07-15 08:55:00,75.0,69.1,30.10,SSE,158,4.0,4.0,82,0.00,,,0.00,meteohub,2013-07-15 13:55:00,
2013-07-15 09:00:00,75.7,69.4,30.09,ESE,113,0.0,4.0,81,0.00,,,0.00,meteohub,2013-07-15 14:00:00,
2013-07-15 09:05:00,75.7,69.4,30.09,SE,135,0.0,4.0,81,0.00,,,0.00,meteohub,2013-07-15 14:05:00,
2013-07-15 09:10:00,76.5,70.2,30.09,ESE,113,4.0,4.0,81,0.00,,,0.00,meteohub,2013-07-15 14:10:00,
2013-07-15 09:15:00,76.5,69.8,30.09,East,90,3.0,4.0,80,0.00,,,0.00,meteohub,2013-07-15 14:15:00,
2013-07-15 09:20:00,76.8,69.8,30.09,ESE,113,2.0,4.0,79,0.00,,,0.00,meteohub,2013-07-15 14:20:00,
2013-07-15 09:25:00,77.0,70.0,30.09,ESE,113,4.0,4.0,79,0.00,,,0.00,meteohub,2013-07-15 14:25:00,
2013-07-15 09:30:00,76.8,69.4,30.09,ESE,113,3.0,4.0,78,0.00,,,0.00,meteohub,2013-07-15 14:30:00,
2013-07-15 09:35:00,76.8,69.4,30.09,ESE,113,4.0,4.0,78,0.00,,,0.00,meteohub,2013-07-15 14:35:00,
2013-07-15 09:40:00,76.8,69.4,30.09,ENE,68,0.0,4.0,78,0.00,,,0.00,meteohub,2013-07-15 14:40:00,
2013-07-15 09:45:00,76.8,69.4,30.09,ESE,113,0.0,4.0,78,0.00,,,0.00,meteohub,2013-07-15 14:45:00,
2013-07-15 09:50:00,77.0,69.6,30.09,East,90,2.0,3.0,78,0.00,,,0.00,meteohub,2013-07-15 14:50:00,
2013-07-15 09:55:00,77.0,69.6,30.09,WNW,293,2.0,2.0,78,0.00,,,0.00,meteohub,2013-07-15 14:55:00,
2013-07-15 10:00:00,77.0,69.6,30.09,SE,135,2.0,2.0,78,0.00,,,0.00,meteohub,2013-07-15 15:00:00,
2013-07-15 10:06:00,77.2,69.8,30.09,SE,135,1.0,2.0,78,0.00,,,0.00,meteohub,2013-07-15 15:06:00,
2013-07-15 10:11:00,77.4,70.0,30.09,SE,135,3.0,3.0,78,0.00,,,0.00,meteohub,2013-07-15 15:11:00,
2013-07-15 10:16:00,77.9,70.2,30.09,ESE,113,0.0,3.0,77,0.00,,,0.00,meteohub,2013-07-15 15:16:00,
2013-07-15 10:22:00,77.5,69.8,30.09,ENE,68,0.0,3.0,77,0.00,,,0.00,meteohub,2013-07-15 15:22:00,
2013-07-15 10:27:00,77.5,69.8,30.09,SSE,158,0.0,3.0,77,0.00,,,0.00,meteohub,2013-07-15 15:27:00,
2013-07-15 10:32:00,77.5,69.8,30.10,ESE,113,0.0,2.0,77,0.00,,,0.00,meteohub,2013-07-15 15:32:00,
2013-07-15 10:37:00,77.7,70.0,30.10,ENE,68,0.0,0.0,77,0.00,,,0.00,meteohub,2013-07-15 15:37:00,
2013-07-15 10:42:00,77.9,70.2,30.10,ESE,113,2.0,0.0,77,0.00,,,0.00,meteohub,2013-07-15 15:42:00,
2013-07-15 10:47:00,77.9,70.2,30.10,ESE,113,2.0,2.0,77,0.00,,,0.00,meteohub,2013-07-15 15:47:00,
2013-07-15 10:52:00,78.3,70.5,30.10,ESE,113,4.0,4.0,77,0.00,,,0.00,meteohub,2013-07-15 15:52:00,
2013-07-15 10:57:00,78.3,70.5,30.09,SE,135,3.0,4.0,77,0.00,,,0.00,meteohub,2013-07-15 15:57:00,
2013-07-15 11:02:00,78.4,70.2,30.09,ESE,113,1.0,4.0,76,0.00,,,0.00,meteohub,2013-07-15 16:02:00,
2013-07-15 11:07:00,78.6,70.3,30.09,SSE,158,0.0,4.0,76,0.00,,,0.00,meteohub,2013-07-15 16:07:00,
2013-07-15 11:12:00,78.8,70.5,30.12,ESE,113,0.0,3.0,76,0.00,,,0.00,meteohub,2013-07-15 16:12:00,
2013-07-15 11:17:00,78.6,70.0,30.12,ENE,68,2.0,3.0,75,0.00,,,0.00,meteohub,2013-07-15 16:17:00,
2013-07-15 11:22:00,78.6,70.3,30.12,SW,225,0.0,3.0,76,0.00,,,0.00,meteohub,2013-07-15 16:22:00,
2013-07-15 11:27:00,78.6,70.3,30.12,SE,135,3.0,3.0,76,0.00,,,0.00,meteohub,2013-07-15 16:27:00,
2013-07-15 11:32:00,79.0,70.7,30.11,ESE,113,0.0,3.0,76,0.00,,,0.00,meteohub,2013-07-15 16:32:00,
2013-07-15 11:37:00,79.0,70.7,30.11,ESE,113,3.0,4.0,76,0.00,,,0.00,meteohub,2013-07-15 16:37:00,
2013-07-15 11:42:00,79.2,70.5,30.10,South,180,0.0,4.0,75,0.00,,,0.00,meteohub,2013-07-15 16:42:00,
2013-07-15 11:48:00,79.3,70.7,30.10,ESE,113,0.0,4.0,75,0.00,,,0.00,meteohub,2013-07-15 16:48:00,
2013-07-15 11:53:00,79.5,70.9,30.09,ESE,113,0.0,4.0,75,0.00,,,0.00,meteohub,2013-07-15 16:53:00,
2013-07-15 11:58:00,80.1,71.4,30.09,ENE,68,0.0,2.0,75,0.00,,,0.00,meteohub,2013-07-15 16:58:00,
2013-07-15 12:03:00,79.9,70.9,30.09,ESE,113,3.0,3.0,74,0.00,,,0.00,meteohub,2013-07-15 17:03:00,
2013-07-15 12:08:00,79.9,70.9,30.09,ESE,113,3.0,3.0,74,0.00,,,0.00,meteohub,2013-07-15 17:08:00,
2013-07-15 12:13:00,80.4,71.4,30.09,ESE,113,0.0,3.0,74,0.00,,,0.00,meteohub,2013-07-15 17:13:00,
2013-07-15 12:19:00,80.4,71.4,30.09,SSE,158,0.0,3.0,74,0.00,,,0.00,meteohub,2013-07-15 17:19:00,
2013-07-15 12:24:00,80.8,71.8,30.09,ESE,113,0.0,3.0,74,0.00,,,0.00,meteohub,2013-07-15 17:24:00,
2013-07-15 12:29:00,80.6,71.6,30.09,ESE,113,0.0,3.0,74,0.00,,,0.00,meteohub,2013-07-15 17:29:00,
2013-07-15 12:34:00,81.0,72.0,30.10,ENE,68,0.0,0.0,74,0.00,,,0.00,meteohub,2013-07-15 17:34:00,
2013-07-15 12:39:00,81.0,71.4,30.10,SSE,158,0.0,0.0,73,0.00,,,0.00,meteohub,2013-07-15 17:39:00,
2013-07-15 12:44:00,81.1,71.6,30.10,West,270,0.0,0.0,73,0.00,,,0.00,meteohub,2013-07-15 17:44:00,
2013-07-15 12:49:00,81.1,71.6,30.10,ESE,113,2.0,0.0,73,0.00,,,0.00,meteohub,2013-07-15 17:49:00,
2013-07-15 12:54:00,81.5,71.6,30.09,ESE,113,0.0,2.0,72,0.00,,,0.00,meteohub,2013-07-15 17:54:00,
2013-07-15 13:00:00,81.5,71.6,30.09,ESE,113,2.0,2.0,72,0.00,,,0.00,meteohub,2013-07-15 18:00:00,
2013-07-15 13:05:00,81.9,71.6,30.09,SE,135,0.0,2.0,71,0.00,,,0.00,meteohub,2013-07-15 18:05:00,
2013-07-15 13:10:00,82.0,72.1,30.09,ENE,68,0.0,2.0,72,0.00,,,0.00,meteohub,2013-07-15 18:10:00,
2013-07-15 13:15:00,82.2,72.0,30.10,SW,225,0.0,2.0,71,0.00,,,0.00,meteohub,2013-07-15 18:15:00,
2013-07-15 13:20:00,82.2,72.0,30.10,SE,135,0.0,0.0,71,0.00,,,0.00,meteohub,2013-07-15 18:20:00,
2013-07-15 13:25:00,82.2,71.4,30.10,SSE,158,0.0,0.0,70,0.00,,,0.00,meteohub,2013-07-15 18:25:00,
2013-07-15 13:30:00,82.6,72.1,30.09,SSE,158,0.0,0.0,71,0.00,,,0.00,meteohub,2013-07-15 18:30:00,
2013-07-15 13:35:00,82.6,71.8,30.09,SE,135,0.0,0.0,70,0.00,,,0.00,meteohub,2013-07-15 18:35:00,
2013-07-15 13:41:00,82.9,71.8,30.09,East,90,3.0,0.0,69,0.00,,,0.00,meteohub,2013-07-15 18:41:00,
2013-07-15 13:46:00,83.3,72.1,30.09,ESE,113,2.0,3.0,69,0.00,,,0.00,meteohub,2013-07-15 18:46:00,
2013-07-15 13:51:00,83.7,72.0,30.09,East,90,3.0,3.0,68,0.00,,,0.00,meteohub,2013-07-15 18:51:00,
2013-07-15 13:56:00,83.8,71.8,30.09,SE,135,3.0,3.0,67,0.00,,,0.00,meteohub,2013-07-15 18:56:00,
2013-07-15 14:01:00,83.8,71.2,30.09,SE,135,0.0,3.0,66,0.00,,,0.00,meteohub,2013-07-15 19:01:00,
2013-07-15 14:06:00,83.8,71.2,30.09,ESE,113,2.0,3.0,66,0.00,,,0.00,meteohub,2013-07-15 19:06:00,
2013-07-15 14:11:00,84.2,71.6,30.09,SSE,158,0.0,4.0,66,0.00,,,0.00,meteohub,2013-07-15 19:11:00,
2013-07-15 14:16:00,84.0,71.4,30.06,ESE,113,0.0,4.0,66,0.00,,,0.00,meteohub,2013-07-15 19:16:00,
2013-07-15 14:21:00,84.4,71.2,30.06,ESE,113,3.0,4.0,65,0.00,,,0.00,meteohub,2013-07-15 19:21:00,
2013-07-15 14:26:00,84.4,70.9,30.06,East,90,0.0,4.0,64,0.00,,,0.00,meteohub,2013-07-15 19:26:00,
2013-07-15 14:27:00,84.4,70.9,30.06,East,90,0.0,4.0,64,0.00,,,0.00,meteohub,2013-07-15 19:27:00,
2013-07-15 14:32:00,84.4,70.9,30.06,ESE,113,0.0,4.0,64,0.00,,,0.00,meteohub,2013-07-15 19:32:00,
2013-07-15 14:37:00,84.7,71.6,30.06,WSW,248,0.0,4.0,65,0.00,,,0.00,meteohub,2013-07-15 19:37:00,
2013-07-15 14:42:00,84.7,71.2,30.06,SE,135,1.0,0.0,64,0.00,,,0.00,meteohub,2013-07-15 19:42:00,
2013-07-15 14:47:00,85.1,71.1,30.06,SE,135,0.0,1.0,63,0.00,,,0.00,meteohub,2013-07-15 19:47:00,
2013-07-15 14:52:00,84.9,70.9,30.07,ESE,113,2.0,2.0,63,0.00,,,0.00,meteohub,2013-07-15 19:52:00,
2013-07-15 14:57:00,84.9,70.5,30.07,East,90,0.0,2.0,62,0.00,,,0.00,meteohub,2013-07-15 19:57:00,
2013-07-15 15:02:00,84.9,70.9,30.07,SE,135,0.0,2.0,63,0.00,,,0.00,meteohub,2013-07-15 20:02:00,
2013-07-15 15:07:00,84.7,70.7,30.07,ENE,68,0.0,2.0,63,0.00,,,0.00,meteohub,2013-07-15 20:07:00,
2013-07-15 15:13:00,84.7,70.7,30.06,ESE,113,0.0,0.0,63,0.00,,,0.00,meteohub,2013-07-15 20:13:00,
2013-07-15 15:18:00,85.3,71.2,30.06,SE,135,0.0,0.0,63,0.00,,,0.00,meteohub,2013-07-15 20:18:00,
2013-07-15 15:23:00,85.3,71.2,30.06,SE,135,0.0,0.0,63,0.00,,,0.00,meteohub,2013-07-15 20:23:00,
2013-07-15 15:28:00,85.5,70.9,30.06,ESE,113,0.0,0.0,62,0.00,,,0.00,meteohub,2013-07-15 20:28:00,
2013-07-15 15:33:00,85.5,70.5,30.04,SE,135,0.0,0.0,61,0.00,,,0.00,meteohub,2013-07-15 20:33:00,
2013-07-15 15:39:00,85.6,70.7,30.04,ENE,68,0.0,0.0,61,0.00,,,0.00,meteohub,2013-07-15 20:39:00,
2013-07-15 15:44:00,85.8,70.3,30.04,ESE,113,0.0,2.0,60,0.00,,,0.00,meteohub,2013-07-15 20:44:00,
2013-07-15 15:49:00,86.0,70.5,30.04,SE,135,0.0,2.0,60,0.00,,,0.00,meteohub,2013-07-15 20:49:00,
2013-07-15 15:54:00,86.4,70.9,30.05,ESE,113,0.0,2.0,60,0.00,,,0.00,meteohub,2013-07-15 20:54:00,
2013-07-15 15:59:00,86.5,70.5,30.05,ESE,113,3.0,3.0,59,0.00,,,0.00,meteohub,2013-07-15 20:59:00,
2013-07-15 16:04:00,86.5,70.5,30.05,ESE,113,2.0,3.0,59,0.00,,,0.00,meteohub,2013-07-15 21:04:00,
2013-07-15 16:09:00,86.5,70.5,30.05,ESE,113,0.0,3.0,59,0.00,,,0.00,meteohub,2013-07-15 21:09:00,
2013-07-15 16:14:00,86.4,70.3,30.02,ESE,113,0.0,3.0,59,0.00,,,0.00,meteohub,2013-07-15 21:14:00,
2013-07-15 16:20:00,86.2,69.6,30.02,ESE,113,2.0,3.0,58,0.00,,,0.00,meteohub,2013-07-15 21:20:00,
2013-07-15 16:25:00,86.5,70.5,30.02,ESE,113,3.0,3.0,59,0.00,,,0.00,meteohub,2013-07-15 21:25:00,
2013-07-15 16:30:00,86.4,70.9,30.02,ESE,113,0.0,3.0,60,0.00,,,0.00,meteohub,2013-07-15 21:30:00,
2013-07-15 16:35:00,86.7,71.2,30.01,ESE,113,3.0,3.0,60,0.00,,,0.00,meteohub,2013-07-15 21:35:00,
2013-07-15 16:40:00,86.7,70.7,30.01,East,90,2.0,3.0,59,0.00,,,0.00,meteohub,2013-07-15 21:40:00,
2013-07-15 16:45:00,86.7,70.2,30.01,East,90,2.0,3.0,58,0.00,,,0.00,meteohub,2013-07-15 21:45:00,
2013-07-15 16:50:00,86.7,70.7,30.01,ESE,113,4.0,4.0,59,0.00,,,0.00,meteohub,2013-07-15 21:50:00,
2013-07-15 16:55:00,86.4,69.8,30.02,ESE,113,3.0,4.0,58,0.00,,,0.00,meteohub,2013-07-15 21:55:00,
2013-07-15 17:00:00,86.5,70.0,30.02,ESE,113,3.0,4.0,58,0.00,,,0.00,meteohub,2013-07-15 22:00:00,
2013-07-15 17:06:00,86.7,70.2,30.02,ESE,113,0.0,4.0,58,0.00,,,0.00,meteohub,2013-07-15 22:06:00,
2013-07-15 17:11:00,86.9,70.9,30.02,ESE,113,6.0,6.0,59,0.00,,,0.00,meteohub,2013-07-15 22:11:00,
2013-07-15 17:16:00,87.3,71.2,30.02,ESE,113,4.0,6.0,59,0.00,,,0.00,meteohub,2013-07-15 22:16:00,
2013-07-15 17:21:00,87.1,70.5,30.02,ESE,113,3.0,6.0,58,0.00,,,0.00,meteohub,2013-07-15 22:21:00,
2013-07-15 17:26:00,86.5,70.0,30.02,ESE,113,0.0,7.0,58,0.00,,,0.00,meteohub,2013-07-15 22:26:00,
2013-07-15 17:32:00,86.0,69.4,30.03,ESE,113,3.0,7.0,58,0.00,,,0.00,meteohub,2013-07-15 22:32:00,
2013-07-15 17:37:00,86.0,69.4,30.02,SE,135,3.0,7.0,58,0.00,,,0.00,meteohub,2013-07-15 22:37:00,
2013-07-15 17:42:00,86.0,69.4,30.02,ESE,113,3.0,3.0,58,0.00,,,0.00,meteohub,2013-07-15 22:42:00,
2013-07-15 17:47:00,86.4,70.3,30.02,ESE,113,2.0,3.0,59,0.00,,,0.00,meteohub,2013-07-15 22:47:00,
2013-07-15 17:52:00,86.5,70.5,30.05,ESE,113,1.0,3.0,59,0.00,,,0.00,meteohub,2013-07-15 22:52:00,
2013-07-15 17:57:00,86.5,70.5,30.05,ESE,113,2.0,3.0,59,0.00,,,0.00,meteohub,2013-07-15 22:57:00,
2013-07-15 18:02:00,86.5,70.5,30.05,ENE,68,2.0,2.0,59,0.00,,,0.00,meteohub,2013-07-15 23:02:00,
2013-07-15 18:07:00,86.2,70.2,30.05,ESE,113,3.0,3.0,59,0.00,,,0.00,meteohub,2013-07-15 23:07:00,
2013-07-15 18:12:00,86.2,70.2,30.06,ESE,113,3.0,3.0,59,0.00,,,0.00,meteohub,2013-07-15 23:12:00,
2013-07-15 18:17:00,86.4,70.3,30.06,ESE,113,2.0,3.0,59,0.00,,,0.00,meteohub,2013-07-15 23:17:00,
2013-07-15 18:22:00,86.5,70.5,30.06,ESE,113,3.0,3.0,59,0.00,,,0.00,meteohub,2013-07-15 23:22:00,
2013-07-15 18:27:00,86.5,70.5,30.06,SSE,158,2.0,3.0,59,0.00,,,0.00,meteohub,2013-07-15 23:27:00,
2013-07-15 18:32:00,86.4,70.3,30.06,ENE,68,0.0,3.0,59,0.00,,,0.00,meteohub,2013-07-15 23:32:00,
2013-07-15 18:37:00,86.5,70.5,30.02,ESE,113,2.0,4.0,59,0.00,,,0.00,meteohub,2013-07-15 23:37:00,
2013-07-15 18:42:00,86.5,70.5,30.02,NW,315,2.0,4.0,59,0.00,,,0.00,meteohub,2013-07-15 23:42:00,
2013-07-15 18:47:00,86.7,70.7,30.02,ESE,113,3.0,3.0,59,0.00,,,0.00,meteohub,2013-07-15 23:47:00,
2013-07-15 18:52:00,86.5,70.5,30.02,ESE,113,2.0,3.0,59,0.00,,,0.00,meteohub,2013-07-15 23:52:00,
2013-07-15 18:57:00,86.5,70.5,30.02,ESE,113,4.0,4.0,59,0.00,,,0.00,meteohub,2013-07-15 23:57:00,
2013-07-15 19:02:00,86.5,71.1,30.02,ESE,113,6.0,6.0,60,0.00,,,0.00,meteohub,2013-07-16 00:02:00,
2013-07-15 19:07:00,85.8,70.3,30.02,ENE,68,2.0,6.0,60,0.00,,,0.00,meteohub,2013-07-16 00:07:00,
2013-07-15 19:12:00,85.6,70.7,30.03,SE,135,3.0,6.0,61,0.00,,,0.00,meteohub,2013-07-16 00:12:00,
2013-07-15 19:17:00,85.3,70.3,30.03,ESE,113,5.0,6.0,61,0.00,,,0.00,meteohub,2013-07-16 00:17:00,
2013-07-15 19:22:00,84.9,70.5,30.03,East,90,2.0,5.0,62,0.00,,,0.00,meteohub,2013-07-16 00:22:00,
2013-07-15 19:27:00,84.7,70.3,30.03,ESE,113,3.0,5.0,62,0.00,,,0.00,meteohub,2013-07-16 00:27:00,
2013-07-15 19:32:00,84.6,70.5,30.02,ESE,113,3.0,5.0,63,0.00,,,0.00,meteohub,2013-07-16 00:32:00,
2013-07-15 19:37:00,83.8,70.3,30.02,SE,135,4.0,4.0,64,0.00,,,0.00,meteohub,2013-07-16 00:37:00,
2013-07-15 19:43:00,83.7,70.2,30.02,East,90,2.0,3.0,64,0.00,,,0.00,meteohub,2013-07-16 00:43:00,
2013-07-15 19:48:00,83.1,70.2,30.02,ESE,113,2.0,4.0,65,0.00,,,0.00,meteohub,2013-07-16 00:48:00,
2013-07-15 19:53:00,82.9,70.0,30.05,SE,135,2.0,4.0,65,0.00,,,0.00,meteohub,2013-07-16 00:53:00,
2013-07-15 19:58:00,82.6,70.0,30.05,East,90,0.0,4.0,66,0.00,,,0.00,meteohub,2013-07-16 00:58:00,
2013-07-15 20:03:00,82.4,70.3,30.05,ESE,113,2.0,4.0,67,0.00,,,0.00,meteohub,2013-07-16 01:03:00,
2013-07-15 20:08:00,82.2,70.5,30.05,WSW,248,13.0,13.0,68,0.00,,,0.00,meteohub,2013-07-16 01:08:00,
2013-07-15 20:13:00,81.9,70.3,30.07,South,180,6.0,13.0,68,0.00,,,0.00,meteohub,2013-07-16 01:13:00,
2013-07-15 20:19:00,80.6,69.1,30.07,SSW,203,5.0,13.0,68,0.00,,,0.00,meteohub,2013-07-16 01:19:00,
2013-07-15 20:24:00,80.2,69.1,30.07,South,180,0.0,13.0,69,0.00,,,0.00,meteohub,2013-07-16 01:24:00,
2013-07-15 20:30:00,78.8,68.5,30.08,SSE,158,0.0,11.0,71,0.00,,,0.00,meteohub,2013-07-16 01:30:00,
2013-07-15 20:35:00,78.3,68.0,30.09,SE,135,0.0,6.0,71,0.00,,,0.00,meteohub,2013-07-16 01:35:00,
2013-07-15 20:40:00,78.1,68.4,30.09,NE,45,0.0,2.0,72,0.00,,,0.00,meteohub,2013-07-16 01:40:00,
2013-07-15 20:45:00,77.4,68.0,30.09,SE,135,1.0,2.0,73,0.11,,,0.11,meteohub,2013-07-16 01:45:00,
2013-07-15 20:50:00,75.9,68.2,30.10,South,180,0.0,2.0,77,0.14,,,0.14,meteohub,2013-07-16 01:50:00,
2013-07-15 20:55:00,74.8,67.5,30.10,South,180,0.0,2.0,78,0.14,,,0.14,meteohub,2013-07-16 01:55:00,
2013-07-15 21:01:00,74.3,67.3,30.10,West,270,0.0,0.0,79,0.19,,,0.19,meteohub,2013-07-16 02:01:00,
2013-07-15 21:06:00,73.8,67.3,30.11,WSW,248,0.0,0.0,80,0.19,,,0.19,meteohub,2013-07-16 02:06:00,
2013-07-15 21:11:00,73.6,67.1,30.11,WSW,248,0.0,0.0,80,0.19,,,0.19,meteohub,2013-07-16 02:11:00,
2013-07-15 21:16:00,73.2,67.1,30.09,South,180,0.0,0.0,81,0.19,,,0.19,meteohub,2013-07-16 02:16:00,
2013-07-15 21:21:00,73.0,66.9,30.09,ESE,113,0.0,0.0,81,0.19,,,0.19,meteohub,2013-07-16 02:21:00,
2013-07-15 21:26:00,72.7,66.9,30.10,ESE,113,0.0,0.0,82,0.19,,,0.19,meteohub,2013-07-16 02:26:00,
2013-07-15 21:31:00,72.9,67.5,30.10,East,90,0.0,0.0,83,0.19,,,0.19,meteohub,2013-07-16 02:31:00,
2013-07-15 21:36:00,72.3,66.9,30.09,ESE,113,0.0,0.0,83,0.19,,,0.19,meteohub,2013-07-16 02:36:00,
2013-07-15 21:41:00,72.3,67.3,30.09,ESE,113,0.0,0.0,84,0.11,,,0.19,meteohub,2013-07-16 02:41:00,
2013-07-15 21:46:00,72.3,67.3,30.09,South,180,0.0,0.0,84,0.05,,,0.19,meteohub,2013-07-16 02:46:00,
2013-07-15 21:51:00,72.3,67.3,30.09,South,180,0.0,0.0,84,0.05,,,0.19,meteohub,2013-07-16 02:51:00,
2013-07-15 21:56:00,72.3,67.6,30.12,South,180,0.0,0.0,85,0.00,,,0.19,meteohub,2013-07-16 02:56:00,
2013-07-15 22:01:00,72.3,67.6,30.12,South,180,0.0,0.0,85,0.00,,,0.19,meteohub,2013-07-16 03:01:00,
2013-07-15 22:06:00,72.3,67.8,30.12,South,180,0.0,0.0,86,0.00,,,0.19,meteohub,2013-07-16 03:06:00,
2013-07-15 22:11:00,72.3,67.8,30.12,South,180,0.0,0.0,86,0.00,,,0.19,meteohub,2013-07-16 03:11:00,
2013-07-15 22:17:00,72.3,67.8,30.12,SW,225,0.0,0.0,86,0.00,,,0.19,meteohub,2013-07-16 03:17:00,
2013-07-15 22:22:00,72.3,67.8,30.12,South,180,0.0,0.0,86,0.00,,,0.19,meteohub,2013-07-16 03:22:00,
2013-07-15 22:27:00,72.3,67.8,30.12,South,180,0.0,0.0,86,0.00,,,0.19,meteohub,2013-07-16 03:27:00,
2013-07-15 22:32:00,72.5,68.4,30.12,SSW,203,0.0,0.0,87,0.00,,,0.19,meteohub,2013-07-16 03:32:00,
2013-07-15 22:37:00,72.3,68.2,30.12,SSW,203,0.0,0.0,87,0.00,,,0.19,meteohub,2013-07-16 03:37:00,
2013-07-15 22:42:00,72.3,68.2,30.12,SSW,203,0.0,0.0,87,0.00,,,0.19,meteohub,2013-07-16 03:42:00,
2013-07-15 22:47:00,72.3,68.2,30.12,SW,225,0.0,0.0,87,0.00,,,0.19,meteohub,2013-07-16 03:47:00,
2013-07-15 22:52:00,72.1,68.0,30.13,SW,225,0.0,0.0,87,0.00,,,0.19,meteohub,2013-07-16 03:52:00,
2013-07-15 22:57:00,72.1,68.4,30.13,SW,225,0.0,0.0,88,0.00,,,0.19,meteohub,2013-07-16 03:57:00,
2013-07-15 23:01:00,72.1,68.4,30.13,SW,225,0.0,0.0,88,0.00,,,0.19,meteohub,2013-07-16 04:01:00,
2013-07-15 23:02:00,72.1,68.4,30.13,SW,225,0.0,0.0,88,0.00,,,0.19,meteohub,2013-07-16 04:02:00,
2013-07-15 23:07:00,72.0,68.2,30.13,SW,225,0.0,0.0,88,0.00,,,0.19,meteohub,2013-07-16 04:07:00,
2013-07-15 23:12:00,72.1,68.4,30.13,SW,225,0.0,0.0,88,0.00,,,0.19,meteohub,2013-07-16 04:12:00,
2013-07-15 23:17:00,72.0,68.2,30.13,SW,225,0.0,0.0,88,0.00,,,0.19,meteohub,2013-07-16 04:17:00,
2013-07-15 23:22:00,72.0,68.2,30.13,SW,225,0.0,0.0,88,0.00,,,0.19,meteohub,2013-07-16 04:22:00,
2013-07-15 23:27:00,71.8,68.0,30.13,SW,225,0.0,0.0,88,0.00,,,0.19,meteohub,2013-07-16 04:27:00,
2013-07-15 23:32:00,71.8,68.0,30.13,SW,225,0.0,0.0,88,0.00,,,0.19,meteohub,2013-07-16 04:32:00,
2013-07-15 23:37:00,71.8,68.0,30.13,SW,225,0.0,0.0,88,0.00,,,0.19,meteohub,2013-07-16 04:37:00,
2013-07-15 23:42:00,71.6,67.8,30.13,SW,225,0.0,0.0,88,0.00,,,0.19,meteohub,2013-07-16 04:42:00,
2013-07-15 23:47:00,71.4,67.6,30.13,ESE,113,0.0,0.0,88,0.00,,,0.19,meteohub,2013-07-16 04:47:00,
2013-07-15 23:52:00,71.4,67.6,30.12,ESE,113,0.0,0.0,88,0.00,,,0.19,meteohub,2013-07-16 04:52:00,
2013-07-15 23:57:00,71.4,67.6,30.12,ESE,113,0.0,0.0,88,0.00,,,0.19,meteohub,2013-07-16 04:57:00,